Regional Weather Roundup
Issued by NWS Sterling, VA

Home | Current Version | Previous Version | Graphics & Text | Print | Product List | Glossary On
Versions: 1 2 3 4 5 6 7 8 9 10 11 12 13 14 15 16 17 18 19 20 21 22 23 24 25 26 27 28 29 30 31 32 33 34 35 36 37 38 39 40 41 42 43 44 45 46 47 48 49 50
000
ASUS41 KLWX 220311
RWRLWX

REGIONAL WEATHER ROUNDUP
NATIONAL WEATHER SERVICE BALTIMORE MD/WASHINGTON DC
1100 PM EDT FRI JUL 21 2017

Note: "FAIR" indicates few or no clouds below 12,000 feet
with no significant weather and/or obstructions to visibility.
 TC=TEMPERATURE CELSIUS

 * =Non NWS site. Station does not report precipitation (e.g. rain,
    snow, etc.), thunder, or fog.

DCZ001-MDZ009-015-VAZ040>042-051-053>054-220400-
WASHINGTON METRO

CITY           SKY/WX    TMP DP  RH WIND       PRES   REMARKS
WASHINGTON NAT CLOUDY    88  77  69 SW5       29.90S HX 100
DULLES         MOCLDY    81  69  67 NW6       29.92S
ANDREWS AFB    CLOUDY    83  74  74 S3        29.90S HX  90
FT BELVOIR     CLOUDY    82  76  81 CALM      29.90S
QUANTICO       CLOUDY    83  74  74 W7        29.91R
COLLEGE PARK*  CLOUDY    84  72  67 CALM      29.90S HX  90
LEESBURG*      CLOUDY    81  73  78 NW3       29.94R
MANASSAS*      MOCLDY    82  71  69 N6        29.92R
GAITHERSBURG*  CLOUDY    78  74  87 CALM      29.94S

$$

MDZ006>007-011-014-220400-
BALTIMORE METRO

CITY           SKY/WX    TMP DP  RH WIND       PRES   REMARKS
BWI AIRPORT    MOCLDY    82  76  81 CALM      29.90S
MD SCIENCE CTR   N/A     89  72  56 MISG      29.89F HX  96
MARTIN STATE   CLOUDY    86  79  79 S3        29.91S HX  99
ANNAPOLIS      CLOUDY    85  81  88 NE3       29.90R HX 100
FORT MEADE*    PTCLDY    77  73  88 CALM      29.93S

$$

MDZ012-015-019>023-220400-
MARYLAND EASTERN SHORE

CITY           SKY/WX    TMP DP  RH WIND       PRES   REMARKS
OCEAN CITY     CLOUDY    82  77  84 SW3       29.92S HX  90
SALISBURY      NOT AVBL
BAY BRIDGE AP* CLOUDY    86  77  74 S6        29.89F HX  97
CAMBRIDGE*     PTCLDY    84  75  74 S3        29.90F HX  92
EASTON*        CLOUDY    87  74  66 SW7       29.93F HX  95

$$

MDZ017>025-220400-
SOUTHERN MARYLAND

CITY           SKY/WX    TMP DP  RH WIND       PRES   REMARKS
PATUXENT RIVER MOCLDY    83  76  79 S7        29.89F HX  91
ST INIGOES     CLOUDY    85  78  80 S8        29.89F HX  96
LEONARDTOWN*   CLOUDY   N/A N/A N/A CALM      29.91F

$$

MDZ003>005-220400-
NORTH CENTRAL MARYLAND

CITY           SKY/WX    TMP DP  RH WIND       PRES   REMARKS
FREDERICK*     CLOUDY    81  72  74 SW3       29.94S
HAGERSTOWN APT MOCLDY    81  75  82 SW3       29.95R
WESTMINSTER*   CLOUDY    82  75  78 CALM      29.94S

$$

MDZ501>502-220400-
WESTERN MARYLAND

CITY           SKY/WX    TMP DP  RH WIND       PRES   REMARKS
OAKLAND*       CLOUDY    64  64 100 CALM      30.08S
CUMBERLAND*    CLOUDY    77  72  83 CALM      30.02S

$$

VAZ025>031-220400-
SHENANDOAH VALLEY

CITY           SKY/WX    TMP DP  RH WIND       PRES   REMARKS
WINCHESTER*    CLOUDY    73  70  88 W5        29.96S
FRONT ROYAL*   CLOUDY    75  72  88 CALM      29.96R
LURAY*         MOCLDY    73  72  94 CALM      29.98S
NEW MARKET*      N/A     72  71  96 CALM      29.98S VSB 3/4
STAUNTON*      CLOUDY    73  70  92 CALM      30.03R
WAYNESBORO*    PTCLDY    75  71  87 W6        30.02S

$$

WVZ021-048>050-054>055-220400-
EASTERN WEST VIRGINIA PANHANDLE

CITY           SKY/WX    TMP DP  RH WIND       PRES   REMARKS
MARTINSBURG    CLOUDY    74  72  93 CALM      29.94R
PETERSBURG*    PTCLDY    73  72  98 CALM      30.01S

$$

VAZ036>039-050-220400-
CENTRAL FOOTHILLS

CITY           SKY/WX    TMP DP  RH WIND       PRES   REMARKS
CHARLOTTESVILL CLOUDY    80  71  74 VRB5      29.95R
CULPEPER*      CLOUDY    75  73  92 CALM      29.93S
ORANGE*        MOCLDY    73  70  88 CALM      29.93S
GORDONSVILLE*  MOCLDY    75  72  88 SW3       29.94R
WARRENTON*     MOCLDY    77  70  79 CALM      29.92S

$$

VAZ055>057-220400-
NORTH AND CENTRAL PIEDMONT

CITY           SKY/WX    TMP DP  RH WIND       PRES   REMARKS
FREDERICKSBRG* CLOUDY    82  71  71 CALM      29.90S
STAFFORD*      CLOUDY    77  72  83 CALM      29.95S

$$

NCZ024-NYZ072-PAZ021-071-VAZ022-071-220400-
OTHER REGIONAL OBSERVATIONS

CITY           SKY/WX    TMP DP  RH WIND       PRES   REMARKS
NEW YORK CITY  CLOUDY    85  68  56 VRB3      29.90R
PHILADELPHIA   CLOUDY    84  71  65 S6        29.90R
PITTSBURGH     PTCLDY    77  74  90 SW7       29.99R
ROANOKE        PTCLDY    81  72  74 CALM      30.04R
RICHMOND       CLOUDY    86  68  54 W6        29.92S
RALEIGH        MOCLDY    81  73  76 SW7       29.99S

$$

ANZ530>537-220400-
MARINE OBSERVATIONS

STATION/POSITION TIME  TEMP    WIND        PRES
                       AIR SEA DIR/SP/G
                 (UTC) (F)     (DEG/KT/KT) (MB)
THOMAS PT LIGHT  0300   86 83  200/ 14/ 15   N/A
BALT KEY BRIDGE  0248   85     120/  3/  6 1012.1S
COVE POINT       0248   85     190/ 11/ 13 1012.9F
LEWISETTA        0248   84 87  210/  9/ 11 1012.3F
SOLOMONS ISLAND  0248   85 85  170/  7/  8   N/A
PINEY POINT      0248          200/ 10/ 12   N/A

$$




USA.gov is the U.S. government's official web portal to all federal, state and local government web resources and services.